#timestamp,LO_Frequency,Hit,StdDev 
1506319215.6,286047000.0,N
1506319235.5,286047000.5,N
1506319255.3,286046998.7,N
1506319275.1,286046998.5,N
1506319295.9,286046999.8,N
1506319315.7,286046999.3,N
1506319335.5,286046999.5,N
1506319355.3,286047000.7,N
1506319375.2,286047000.3,N
1506319395.0,286046999.9,N
1506319395.9,286046999.9,N
1506319415.7,286047001.1,N
1506319435.6,286046990.3,Y
1506319455.4,286046995.5,P
1506319475.2,286047000.4,N
1506319495.1,286047008.6,P
1506319496.0,286047008.6,N
1506319515.8,286047013.2,N
1506319535.6,286047016.1,N
1506319555.5,286047025.2,Y
1506319575.3,286047020.8,P
1506319595.1,286047028.1,P
1506319615.9,286047030.6,P
1506319635.7,286047032.5,Y
1506319655.5,286047015.9,P
1506319675.4,286047016.8,P
1506319695.2,286047020.2,P
1506319715.0,286047023.4,Y
1506319716.0,286047023.4,P
1506319735.8,286047004.3,N
1506319755.6,286047003.6,N
1506319775.4,286047006.2,N
1506319795.3,286047009.0,N
1506319815.1,286047012.1,N
1506319835.8,286047013.2,N
1506319855.7,286047015.0,N
1506319875.5,286047013.4,N
1506319895.3,286047014.3,N
1506319915.2,286047018.6,Y
1506319935.9,286047003.5,P
1506319955.7,286047004.1,N
1506319975.6,286047004.2,N
1506319995.4,286047002.9,N
1506320015.2,286047005.7,N
1506320035.1,286047008.6,N
1506320036.0,286047008.6,N
1506320055.8,286047011.7,Y
1506320075.6,286047006.0,P
1506320095.5,286047004.9,P
1506320115.3,286047001.3,N
1506320135.1,286047002.2,N
1506320155.9,286047003.4,N
1506320175.7,286047002.2,N
1506320195.5,286047004.7,N
1506320215.3,286047002.9,N
1506320235.2,286047001.9,N
1506320255.0,286047004.8,N
1506320255.9,286047004.8,N
1506320275.8,286047006.1,Y
1506320295.6,286047005.7,P
1506320315.4,286047005.9,P
1506320335.2,286047004.8,P
1506320355.1,286047005.4,Y
1506320356.0,286047005.4,P
1506320375.8,286046997.2,P
1506320395.7,286046998.4,N
1506320415.5,286046996.6,N
1506320435.3,286046998.6,N
1506320455.1,286047000.1,N
1506320475.9,286047000.7,N
1506320495.7,286046999.9,N
1506320515.5,286047005.4,N
1506320535.4,286047005.7,N
1506320555.2,286047003.2,N
1506320575.0,286047001.4,N
1506320575.9,286047001.4,N
1506320595.8,286047003.3,N
1506320615.6,286047001.3,N
1506320635.4,286047002.7,N
1506320655.3,286047002.1,N
1506320675.1,286047001.8,N
1506320676.0,286047001.8,N
1506320695.8,286047002.6,N
1506320715.7,286047007.6,N
1506320735.5,286047008.8,Y
1506320755.3,286047005.1,P
1506320775.2,286047002.2,N
1506320795.9,286047000.4,N
1506320815.7,286047005.6,Y
1506320835.6,286046998.7,P
1506320855.4,286046999.0,N
1506320875.2,286047002.4,N
1506320895.1,286047000.9,N
1506320896.0,286047000.9,N
1506320915.8,286046995.7,N
1506320935.6,286046996.9,N
1506320955.5,286046999.2,N
1506320975.3,286046996.7,N
1506320995.1,286046997.1,N
1506321015.8,286046996.9,N
1506321035.7,286046998.4,N
1506321055.5,286046995.4,N
1506321075.3,286046999.2,N
1506321095.2,286047002.2,N
1506321115.9,286047003.9,N
1506321135.7,286047001.3,N
1506321155.6,286047000.5,N
1506321175.4,286047000.6,N
1506321195.2,286047000.8,N
1506321215.0,286047000.9,N
1506321216.0,286047000.9,N
1506321235.8,286046995.2,N
1506321255.6,286046998.0,N
1506321275.4,286046997.4,N
1506321295.3,286046997.6,N
1506321315.1,286046999.6,N
1506321335.8,286046995.1,N
1506321355.7,286046996.9,N
1506321375.5,286046999.5,N
1506321395.3,286046999.2,N
1506321415.2,286046997.4,N
1506321435.9,286046993.5,N
1506321455.7,286046994.6,N
1506321475.6,286046995.8,N
1506321495.4,286046992.2,Y
1506321515.2,286046992.3,P
1506321535.1,286046993.4,N
1506321536.0,286046993.4,N
1506321555.8,286046993.8,N
1506321575.6,286046997.3,N
1506321595.5,286046998.4,N
1506321615.3,286046996.9,N
1506321635.1,286046998.3,N
1506321655.9,286046996.5,N
1506321675.9,286046995.5,N
1506321695.7,286046994.0,N
1506321715.6,286046996.4,N
1506321735.4,286046995.9,N
1506321755.2,286046994.5,N
1506321775.0,286046995.5,N
1506321776.0,286046995.5,N
1506321795.8,286046997.3,N
1506321815.6,286046997.2,N
1506321835.4,286046999.5,N
1506321855.3,286046997.8,N
1506321875.1,286046997.2,N
1506321895.8,286046999.4,N
1506321915.7,286046999.5,N
1506321935.5,286046999.5,N
1506321955.3,286047000.6,N
1506321975.2,286046996.5,N
1506321995.9,286046997.8,N
1506322015.7,286046996.4,N
1506322035.6,286046994.4,N
1506322055.4,286046993.8,N
1506322075.2,286046997.5,N
1506322095.0,286046994.3,N
1506322096.0,286046994.3,N
1506322115.8,286046990.4,Y
1506322135.6,286046996.0,P
1506322155.5,286046992.9,P
1506322175.3,286046990.9,P
1506322195.1,286046993.6,N
1506322215.8,286046994.3,N
1506322235.7,286046994.2,Y
1506322255.5,286047002.5,P
1506322275.3,286047001.9,N
1506322295.2,286047003.0,N
1506322315.0,286047005.4,N
1506322315.9,286047005.4,N
1506322335.7,286047004.3,N
1506322355.6,286047004.0,N
1506322375.4,286047003.1,N
1506322395.2,286047002.4,N
1506322415.1,286046996.9,N
1506322416.0,286046996.9,N
1506322435.8,286046997.7,N
1506322455.6,286046999.6,N
1506322475.5,286046998.7,N
1506322495.3,286046999.1,N
1506322515.1,286046999.3,N
1506322535.9,286047004.1,N
1506322555.7,286047007.6,N
1506322575.5,286047005.5,N
1506322595.3,286047002.3,N
1506322615.2,286047002.3,N
1506322635.0,286046998.1,N
1506322635.9,286046998.1,N
1506322655.7,286047000.2,N
1506322675.6,286047000.4,N
1506322695.4,286047002.4,N
1506322715.2,286046998.2,N
1506322735.1,286046998.7,N
1506322736.0,286046998.7,N
1506322755.8,286046997.0,N
1506322775.6,286046995.1,N
1506322795.5,286046998.7,N
